sat.trackr.live / text

‹ back to catalog

ONEWEB-0034

NORAD 45454 · 2020-020AG

PAYLOAD ACTIVE UNKNOWN

§ Identity

Operator
Country
UK
Launch date
2020-03-21
Launch site
TYMSC
Launch vehicle
Mass (kg)
RCS (m²)

Purposes: comms

External: N2YO · Heavens-Above · Gunter

§ Orbital elements

Epoch: 2026-05-25T02:16:25.054752Z

Period
109.85 min
Inclination
87.8918°
Eccentricity
0.0001788
Mean motion
13.10936467 rev/d
Perigee alt
1,218.2 km
Apogee alt
1,220.9 km
Semi-major
7,597.7 km
B*
-4.3602e-4
RAAN
25.6592°
Arg perigee
80.4533°
Mean anomaly
279.6797°
Rev number
29,956

§ Raw data

ONEWEB-00341 45454U 20020AG  26145.09473443 -.00000141  00000+0 -43602-3 0  99932 45454  87.8918  25.6592 0001788  80.4533 279.6797 13.10936467299569

JSON: /api/v1/satellites/45454 · /tle

For live sub-satellite position, see the globe view (requires WebGL).

§ Visibility from observer

Set your observer location to see the next 7 days of passes ≥ 10°. The values pass through the URL so the page stays shareable.

No JS? Fill the form by hand. The geolocation button needs JavaScript.